Saint Simons Island, GA

1:50 PM EST on February 10, 2016 (GMT -0500)
McKinnon

Weather History for KSSI - October, 2013

Change the Weather History Date:

Tuesday, October 8, 2013

  Actual Average Record
Temperature  
Mean Temperature 69 °F 72 °F  
Max Temperature 76 °F 80 °F 89 °F (1962)
Min Temperature 62 °F 65 °F 49 °F (1991)
Degree Days  
Heating Degree Days 0 0  
Month to date heating degree days 0 0  
Since 1 July heating degree days 0 0  
Cooling Degree Days 4 8  
Month to date cooling degree days 76 71  
Year to date cooling degree days 2433 2442  
Growing Degree Days 20 (Base 50)    
Moisture  
Dew Point 69 °F    
Average Humidity 87    
Maximum Humidity 93    
Minimum Humidity 81    
Precipitation  
Precipitation 0.49 in 0.17 in 4.30 in (1976)
Month to date precipitation 0.50 1.48  
Year to date precipitation 46.33 37.35  
Snow  
Snow 0.00 in - 0.00 in ()
Month to date snowfall 0.0  
Since 1 July snowfall 0.0  
Since 1 September snowfall 0.0  
Snow Depth 0.00 in    
Sea Level Pressure  
Sea Level Pressure 29.92 in    
Wind  
Wind Speed 12 mph (North)    
Max Wind Speed 20 mph    
Max Gust Speed 26 mph    
Visibility 8 miles    
Events Rain    
T = Trace of Precipitation, MM = Missing Value Source: NWS Daily Summary

Daily Weather History Graph

Daily Weather History Graph

Search for Another Location

Airport or City:

Trip Planner

Search our weather history database for the weather conditions in past years. The results will help you decide how hot, cold, wet, or windy it might be!

Date:

Astronomy

Oct. 08, 2013 Rise Set
Actual Time 7:23 AM EDT 7:01 PM EDT
Civil Twilight 6:59 AM EDT 7:25 PM EDT
Nautical Twilight 6:31 AM EDT 7:53 PM EDT
Astronomical Twilight 6:03 AM EDT 8:22 PM EDT
Moon 11:02 AM EDT (10/8) 9:51 PM EDT (10/8)
Length of Visible Light 12h 26m
Length of Day
11h 37m
Waxing Crescent, 16% of the Moon is Illuminated
Oct 8
Waxing Crescent
Oct 11
First Quarter
Oct 18
Full
Oct 26
Last Quarter
Nov 3
New

Hourly Weather History & Observations

Time (EDT) Temp. Dew Point Humidity Pressure Visibility Wind Dir Wind Speed Gust Speed Precip Events Conditions
12:53 AM 75.9 °F 72.0 °F 87% 29.85 in 10.0 mi NNW 8.1 mph - N/A   Overcast
1:32 AM 73.4 °F 69.8 °F 88% 29.85 in 10.0 mi North 12.7 mph - N/A   Overcast
1:53 AM 73.0 °F 70.0 °F 90% 29.85 in 10.0 mi North 9.2 mph - N/A   Overcast
2:23 AM 73.4 °F 69.8 °F 88% 29.85 in 10.0 mi North 11.5 mph - N/A   Overcast
2:53 AM 72.0 °F 70.0 °F 93% 29.84 in 10.0 mi North 11.5 mph - N/A   Overcast
3:53 AM 72.0 °F 70.0 °F 93% 29.82 in 10.0 mi North 9.2 mph - N/A   Mostly Cloudy
4:53 AM 73.0 °F 69.1 °F 87% 29.83 in 10.0 mi NNE 8.1 mph - N/A   Overcast
5:53 AM 73.9 °F 71.1 °F 91% 29.84 in 10.0 mi NNE 10.4 mph - N/A   Overcast
6:53 AM 73.9 °F 71.1 °F 91% 29.85 in 10.0 mi NE 9.2 mph - N/A   Partly Cloudy
7:53 AM 75.0 °F 71.1 °F 87% 29.86 in 10.0 mi North 10.4 mph - N/A   Overcast
8:53 AM 75.9 °F 72.0 °F 87% 29.88 in 10.0 mi NNE 9.2 mph - N/A   Scattered Clouds
9:00 AM 75.2 °F 71.6 °F 89% 29.89 in 10.0 mi North 8.1 mph - N/A   Mostly Cloudy
9:08 AM 75.2 °F 71.6 °F 89% 29.90 in 10.0 mi North 8.1 mph - N/A   Mostly Cloudy
9:17 AM 75.2 °F 71.6 °F 89% 29.90 in 10.0 mi NNE 8.1 mph - N/A   Overcast
9:42 AM 75.2 °F 71.6 °F 89% 29.90 in 10.0 mi North 11.5 mph - N/A   Overcast
9:53 AM 75.0 °F 71.1 °F 87% 29.91 in 3.0 mi North 10.4 mph - 0.01 in Rain Rain
9:58 AM 73.4 °F 71.6 °F 94% 29.91 in 2.5 mi North 10.4 mph - 0.02 in Rain Rain
10:06 AM 73.4 °F 71.6 °F 94% 29.91 in 1.2 mi North 8.1 mph - 0.09 in Rain Heavy Rain
10:13 AM 73.4 °F 71.6 °F 94% 29.91 in 2.0 mi North 9.2 mph - 0.10 in Rain Light Rain
10:16 AM 73.4 °F 71.6 °F 94% 29.91 in 3.0 mi North 9.2 mph - 0.11 in Rain Light Rain
10:29 AM 73.4 °F 71.6 °F 94% 29.92 in 5.0 mi North 10.4 mph - 0.12 in Rain Light Rain
10:41 AM 73.4 °F 71.6 °F 94% 29.91 in 1.8 mi North 17.3 mph 24.2 mph 0.19 in Rain Heavy Rain
10:45 AM 73.4 °F 71.6 °F 94% 29.91 in 1.2 mi North 11.5 mph 24.2 mph 0.21 in Rain Heavy Rain
10:53 AM 73.9 °F 72.0 °F 93% 29.92 in 1.5 mi North 10.4 mph 20.7 mph 0.29 in Rain Heavy Rain
11:09 AM 73.4 °F 71.6 °F 94% 29.92 in 2.0 mi North 11.5 mph - 0.16 in Rain Heavy Rain
11:16 AM 73.4 °F 71.6 °F 94% 29.93 in 3.0 mi North 10.4 mph - 0.17 in Rain Rain
11:53 AM 72.0 °F 70.0 °F 93% 29.94 in 9.0 mi North 18.4 mph 24.2 mph 0.19 in   Overcast
12:53 PM 71.1 °F 68.0 °F 90% 29.95 in 9.0 mi North 9.2 mph - N/A   Overcast
1:02 PM 71.6 °F 68.0 °F 88% 29.94 in 10.0 mi North 15.0 mph 19.6 mph N/A   Overcast
1:53 PM 71.1 °F 66.9 °F 87% 29.94 in 10.0 mi North 12.7 mph 19.6 mph N/A   Overcast
2:53 PM 71.1 °F 66.0 °F 84% 29.94 in 10.0 mi North 16.1 mph 21.9 mph N/A   Overcast
3:53 PM 69.1 °F 64.9 °F 87% 29.96 in 8.0 mi North 13.8 mph 23.0 mph N/A   Overcast
4:53 PM 69.1 °F 64.0 °F 84% 29.97 in 10.0 mi North 10.4 mph 21.9 mph N/A   Overcast
5:53 PM 68.0 °F 63.0 °F 84% 29.98 in 10.0 mi NNE 12.7 mph 20.7 mph N/A   Overcast
6:53 PM 66.9 °F 62.1 °F 84% 30.00 in 10.0 mi NNE 12.7 mph - N/A   Overcast
7:53 PM 66.0 °F 61.0 °F 84% 30.01 in 10.0 mi North 18.4 mph 25.3 mph N/A   Overcast
8:53 PM 64.9 °F 60.1 °F 84% 30.03 in 10.0 mi North 15.0 mph 23.0 mph N/A   Overcast
9:53 PM 64.0 °F 60.1 °F 87% 30.05 in 10.0 mi North 11.5 mph - N/A   Overcast
10:53 PM 64.0 °F 59.0 °F 84% 30.06 in 10.0 mi North 12.7 mph - N/A   Overcast
11:53 PM 63.0 °F 59.0 °F 87% 30.05 in 10.0 mi North 11.5 mph - N/A   Overcast